N1ORT Weather Reports


time (UTC)temp
C
wind
direction
speed
KPH
gust
KPH
rain 1hr
cm
rain 24hr
cm
rain mn
cm
humidity
%
barometer
mb
20260505022206 15 248 6.4 8.0 0.00 0.00 0.00 52 1007.9
20260505021703 16 106 4.8 14.5 0.00 0.00 0.00 51 1008.0
20260505021200 16 212 4.8 16.1 0.00 0.00 0.00 51 1007.9
20260505020656 16 191 3.2 8.0 0.00 0.00 0.00 51 1008.0
20260505020151 16 224 4.8 9.7 0.00 0.00 0.00 51 1007.8
20260505015649 16 110 4.8 8.0 0.00 0.00 0.00 50 1007.8
20260505015145 16 93 8.0 16.1 0.00 0.00 0.00 50 1007.8
20260505014642 16 257 1.6 8.0 0.00 0.00 0.00 50 1007.6
20260505014139 16 65 8.0 17.7 0.00 0.00 0.00 49 1007.8
20260505013637 16 80 3.2 6.4 0.00 0.00 0.00 50 1007.6
20260505013134 16 42 4.8 11.3 0.00 0.00 0.00 49 1007.6
20260505012632 16 0 1.6 11.3 0.00 0.00 0.00 49 1007.5
20260505012128 17 152 3.2 8.0 0.00 0.00 0.00 49 1007.1
20260505011624 17 34 1.6 12.9 0.00 0.00 0.00 48 1007.4
20260505011122 17 249 6.4 14.5 0.00 0.00 0.00 47 1007.0
20260505010617 17 282 3.2 11.3 0.00 0.00 0.00 47 1007.0
20260505010114 17 262 8.0 16.1 0.00 0.00 0.00 46 1007.0
20260505005610 17 62 0.0 8.0 0.00 0.00 0.00 47 1006.6
20260505005107 17 41 0.0 12.9 0.00 0.00 0.00 45 1006.7
20260505004604 17 110 3.2 11.3 0.00 0.00 0.00 45 1006.5
20260505004101 17 257 6.4 17.7 0.00 0.00 0.00 44 1006.4
20260505003558 18 273 3.2 9.7 0.00 0.00 0.00 43 1006.4
20260505003056 18 328 3.2 11.3 0.00 0.00 0.00 42 1006.2
20260505002555 18 300 1.6 6.4 0.00 0.00 0.00 40 1005.7
20260505002049 18 259 3.2 4.8 0.00 0.00 0.00 40 1005.7
20260505001546 18 283 0.0 6.4 0.00 0.00 0.00 41 1005.5
20260505001043 18 295 1.6 3.2 0.00 0.00 0.00 39 1005.6
20260505000541 18 276 1.6 6.4 0.00 0.00 0.00 40 1005.4
20260505000038 18 263 0.0 4.8 0.00 0.00 0.00 39 1005.4
20260504235535 18 245 0.0 3.2 0.00 0.00 0.00 40 1005.2
20260504235032 18 73 3.2 6.4 0.00 0.00 0.00 38 1005.3
20260504234529 19 263 3.2 6.4 0.00 0.00 0.00 37 1005.0
20260504234026 19 142 0.0 3.2 0.00 0.00 0.00 38 1005.0
20260504233521 20 178 0.0 12.9 0.00 0.00 0.00 37 1004.9
20260504233018 20 295 3.2 11.3 0.00 0.00 0.00 35 1005.0
20260504232515 20 299 0.0 4.8 0.00 0.00 0.00 38 1005.0
20260504232013 20 272 3.2 8.0 0.00 0.00 0.00 35 1004.9
20260504231509 20 306 0.0 8.0 0.00 0.00 0.00 37 1004.9
20260504231005 20 309 1.6 6.4 0.00 0.00 0.00 34 1004.7
20260504230502 20 10 3.2 8.0 0.00 0.00 0.00 34 1004.7
20260504230001 20 267 3.2 12.9 0.00 0.00 0.00 34 1004.6
20260504225457 21 281 3.2 11.3 0.00 0.00 0.00 33 1004.4
20260504224954 21 285 20.9 20.9 0.00 0.00 0.00 32 1004.4
20260504224450 21 285 9.7 20.9 0.00 0.00 0.00 32 1004.6
20260504223948 21 265 4.8 9.7 0.00 0.00 0.00 32 1004.4
20260504223444 21 309 6.4 14.5 0.00 0.00 0.00 33 1004.3
20260504222940 21 268 8.0 11.3 0.00 0.00 0.00 33 1004.4
20260504222437 21 266 6.4 8.0 0.00 0.00 0.00 33 1004.4
20260504221935 21 182 0.0 11.3 0.00 0.00 0.00 33 1004.4
20260504221432 21 296 4.8 6.4 0.00 0.00 0.00 32 1004.7
20260504220929 21 300 4.8 17.7 0.00 0.00 0.00 32 1004.4
20260504220425 21 283 8.0 11.3 0.00 0.00 0.00 34 1004.4
20260504215922 21 304 6.4 14.5 0.00 0.00 0.00 31 1004.3
20260504215419 21 248 4.8 9.7 0.00 0.00 0.00 32 1004.4
20260504214916 21 307 4.8 11.3 0.00 0.00 0.00 33 1004.4
20260504214412 21 242 9.7 32.2 0.00 0.00 0.00 31 1004.0
20260504213909 21 265 4.8 16.1 0.00 0.00 0.00 33 1004.3
20260504213405 21 271 9.7 16.1 0.00 0.00 0.00 31 1004.4
20260504212903 21 302 3.2 17.7 0.00 0.00 0.00 31 1004.5
20260504212358 22 284 9.7 22.5 0.00 0.00 0.00 30 1004.4
20260504211856 22 245 8.0 14.5 0.00 0.00 0.00 31 1004.3
20260504211352 22 271 8.0 11.3 0.00 0.00 0.00 32 1004.3
20260504210850 22 321 11.3 20.9 0.00 0.00 0.00 31 1004.3
20260504210346 22 285 6.4 11.3 0.00 0.00 0.00 33 1004.2
20260504205843 22 314 6.4 20.9 0.00 0.00 0.00 30 1004.5
20260504205341 22 238 6.4 17.7 0.00 0.00 0.00 31 1004.2
20260504204839 22 308 8.0 17.7 0.00 0.00 0.00 30 1004.2
20260504204337 22 261 9.7 14.5 0.00 0.00 0.00 31 1004.3
20260504203836 22 301 3.2 16.1 0.00 0.00 0.00 29 1004.1
20260504203333 23 295 8.0 12.9 0.00 0.00 0.00 29 1004.1
20260504202828 22 307 4.8 14.5 0.00 0.00 0.00 30 1004.2
20260504202326 22 296 9.7 27.4 0.00 0.00 0.00 29 1004.4
20260504201822 21 260 8.0 40.2 0.00 0.00 0.00 34 1004.2
20260504201320 22 274 17.7 22.5 0.00 0.00 0.00 30 1004.0
20260504200817 22 312 11.3 22.5 0.00 0.00 0.00 30 1004.2
20260504200314 22 251 9.7 11.3 0.00 0.00 0.00 31 1004.2
20260504195810 22 0 4.8 25.7 0.00 0.00 0.00 28 1004.2
20260504195306 22 305 11.3 17.7 0.00 0.00 0.00 30 1004.2
20260504194803 22 230 3.2 11.3 0.00 0.00 0.00 30 1004.2
20260504194259 22 254 12.9 19.3 0.00 0.00 0.00 30 1004.4
20260504193755 22 289 12.9 24.1 0.00 0.00 0.00 29 1004.3
20260504193253 22 284 16.1 20.9 0.00 0.00 0.00 28 1004.1
20260504192751 23 345 8.0 14.5 0.00 0.00 0.00 28 1004.2
20260504192249 22 321 4.8 16.1 0.00 0.00 0.00 30 1004.4
20260504191747 22 251 9.7 11.3 0.00 0.00 0.00 29 1004.4
20260504191244 21 266 16.1 20.9 0.00 0.00 0.00 30 1004.4
20260504190739 21 288 9.7 17.7 0.00 0.00 0.00 30 1004.5
20260504190236 20 299 11.3 25.7 0.00 0.00 0.00 30 1004.5
20260504185732 22 288 27.4 27.4 0.00 0.00 0.00 29 1004.6
20260504185230 22 248 8.0 19.3 0.00 0.00 0.00 32 1004.8
20260504184726 22 77 6.4 20.9 0.00 0.00 0.00 31 1004.5
20260504184222 22 264 11.3 27.4 0.00 0.00 0.00 29 1004.5
20260504183718 22 262 4.8 16.1 0.00 0.00 0.00 32 1004.7
20260504183215 21 277 8.0 24.1 0.00 0.00 0.00 30 1004.8
20260504182713 21 301 6.4 20.9 0.00 0.00 0.00 29 1005.0
20260504182210 21 252 4.8 19.3 0.00 0.00 0.00 32 1004.8
20260504181707 22 351 12.9 24.1 0.00 0.00 0.00 29 1004.8
20260504181205 22 283 8.0 24.1 0.00 0.00 0.00 28 1004.8
20260504180704 21 309 6.4 17.7 0.00 0.00 0.00 31 1004.7
20260504180202 21 239 8.0 19.3 0.00 0.00 0.00 31 1004.8
20260504175659 21 274 4.8 16.1 0.00 0.00 0.00 29 1004.9
20260504175155 21 282 25.7 25.7 0.00 0.00 0.00 32 1004.8
20260504174653 21 282 19.3 22.5 0.00 0.00 0.00 30 1005.0
20260504174150 21 243 3.2 25.7 0.00 0.00 0.00 33 1005.0
20260504173647 21 19 12.9 19.3 0.00 0.00 0.00 29 1004.9
20260504173144 21 278 25.7 25.7 0.00 0.00 0.00 30 1005.0
20260504172641 21 290 4.8 12.9 0.00 0.00 0.00 29 1005.2
20260504172137 21 180 16.1 25.7 0.00 0.00 0.00 31 1005.3
20260504171634 20 292 4.8 29.0 0.00 0.00 0.00 32 1005.1
20260504171131 20 242 9.7 19.3 0.00 0.00 0.00 31 1005.1
20260504170627 21 274 14.5 22.5 0.00 0.00 0.00 31 1005.5
20260504170125 20 265 8.0 20.9 0.00 0.00 0.00 32 1005.4
20260504151011 18 276 22.5 22.5 0.00 0.00 0.00 37 1006.1
20260504150508 18 298 16.1 41.8 0.00 0.00 0.00 37 1006.1
20260504140934 16 258 9.7 24.1 0.00 0.00 0.00 42 1007.1
20260504140430 16 292 11.3 22.5 0.00 0.00 0.00 40 1007.2
20260504130355 14 263 6.4 25.7 0.00 0.00 0.00 46 1007.6
20260504120318 10 314 3.2 6.4 0.00 0.00 0.00 55 1008.4
20260504110242 7 70 3.2 4.8 0.00 0.00 0.00 68 1008.6
20260504100200 6 89 0.0 4.8 0.00 0.00 0.00 68 1008.3
20260504090122 6 106 0.0 4.8 0.00 0.00 0.00 67 1008.0
20260504081553 6 76 0.0 4.8 0.00 0.00 0.00 69 1008.4
20260504081048 6 230 0.0 3.2 0.00 0.00 0.00 72 1008.3
20260504080545 5 235 1.6 3.2 0.00 0.00 0.00 73 1008.1
20260504050358 2 49 0.0 1.6 0.00 0.00 0.00 87 1008.1
20260504045855 2 41 0.0 3.2 0.00 0.00 0.00 84 1008.2
20260504045350 2 295 0.0 3.2 0.00 0.00 0.00 85 1008.1
20260504044847 2 65 0.0 4.8 0.00 0.00 0.00 85 1008.2
20260504044345 2 141 0.0 3.2 0.00 0.00 0.00 87 1008.0
20260504043842 2 111 0.0 4.8 0.00 0.00 0.00 85 1008.1
20260504043339 2 69 0.0 3.2 0.00 0.00 0.00 81 1008.1
20260504042836 2 249 0.0 1.6 0.00 0.00 0.00 81 1008.1
20260504042332 2 94 3.2 3.2 0.00 0.00 0.00 79 1008.1
20260504041829 2 135 0.0 3.2 0.00 0.00 0.00 79 1008.2
20260504041325 2 114 1.6 4.8 0.00 0.00 0.00 80 1008.1
20260504040821 2 103 1.6 3.2 0.00 0.00 0.00 82 1008.0
20260504040319 2 89 0.0 0.0 0.00 0.00 0.00 83 1008.1
20260504035815 2 133 1.6 3.2 0.00 0.05 0.05 83 1007.9
20260504035312 2 210 1.6 4.8 0.00 0.05 0.05 81 1007.9
20260504034809 3 122 1.6 4.8 0.00 0.05 0.05 79 1007.8
20260504034307 3 269 0.0 4.8 0.00 0.05 0.05 80 1007.9
20260504033804 2 103 0.0 3.2 0.00 0.05 0.05 80 1007.8
20260504033302 3 110 0.0 3.2 0.00 0.05 0.05 80 1007.9
20260504032758 2 192 0.0 1.6 0.00 0.05 0.05 82 1007.9
20260504032255 3 86 3.2 4.8 0.00 0.05 0.05 80 1007.7
20260504031752 3 96 0.0 3.2 0.00 0.05 0.05 80 1008.0
20260504031249 3 98 1.6 4.8 0.00 0.05 0.05 81 1007.9
20260504030745 3 96 0.0 3.2 0.00 0.05 0.05 80 1007.9
20260504030243 2 54 1.6 3.2 0.00 0.05 0.05 82 1008.0
20260504025739 2 89 0.0 3.2 0.00 0.05 0.05 83 1007.9
20260504025236 2 105 1.6 3.2 0.00 0.05 0.05 82 1007.9
20260504024733 3 136 0.0 3.2 0.00 0.05 0.05 81 1007.9
20260504024229 3 121 0.0 3.2 0.00 0.05 0.05 79 1007.7
20260504023726 3 100 1.6 4.8 0.00 0.05 0.05 76 1007.8
20260504023222 3 89 0.0 3.2 0.00 0.05 0.05 76 1007.8
20260504022718 4 76 0.0 0.0 0.00 0.05 0.05 77 1008.0